[[{"header":{"parameterUnit":"m.s-1","parameterCategory":2,"la1":30.2991,"la2":30.254,"lo1":-89.0895,"lo2":-89.0444,"dy":0.0017,"dx":0.0017,"nx":28,"ny":28,"refTime":"2025-07-07T03:00:00:Z","depth":"0","parameterNumber":2,"parameterNumberName":"U-component_of_CURRENTS"},"data":[0,0,0,0,0,0,0,0,0,0,0,0,0,0,0,0,0,0,0,0,0,0,0,0,0,0,0,0,0,0,0,0,0,0,0,0,0,0,0,0,0,0,0,0,0,0,0,0,0,0,0,0,0,0,0,0,0,0,0.1775,0.1777,0,0.1941,0.1943,0.1945,0.1997,0.1996,0.1995,0.1994,0.2086,0.2089,0.2093,0,0,0,0,0,0,0,0,0,0,0,0,0,0.1604,0.1607,0.1775,0.1777,0.1779,0.194,0.1943,0.1946,0.1997,0.1996,0.1995,0.1993,0.2085,0.2089,0.2093,0,0,0,0,0,0,0,0,0,0,0,0,0,0.1718,0.1607,0.1775,0.1821,0.1827,0.194,0.1943,0.1946,0.1998,0.1996,0.1994,0.1993,0.2084,0.2089,0.2094,0.2159,0,0,0.211,0.2112,0,0,0,0,0,0,0,0,0.1711,0.1724,0.1813,0.1818,0.1825,0.1944,0.1916,0.2013,0.1998,0.1937,0.1994,0.1992,0.2031,0.204,0.2081,0.2163,0.2167,0.211,0.2113,0.2115,0.2117,0,0,0,0,0,0,0,0.1703,0.1718,0.1844,0.1815,0.1822,0.1868,0.1882,0.1936,0.1992,0.1942,0.1945,0.1959,0.2034,0.2076,0.2083,0.2168,0.211,0.2115,0.2118,0.212,0.2324,0.2326,0,0,0,0,0,0,0.1673,0.1711,0.1839,0.1849,0.1759,0.1872,0.1888,0.191,0.1993,0.2004,0.196,0.196,0.2068,0.2077,0.2086,0.2178,0.2115,0.212,0.2123,0.2322,0.2324,0.2327,0,0,0,0,0,0,0.1669,0.1683,0.1832,0.178,0.1801,0.1875,0.1901,0.1914,0.1955,0.2007,0.2017,0.1986,0.2067,0.2079,0.2152,0.2181,0.2123,0.2127,0.2319,0.2322,0.2326,0.2354,0,0,0,0,0,0,0.1663,0.1681,0.1696,0.1778,0.1803,0.1904,0.1903,0.1918,0.1964,0.1967,0.2033,0.204,0.2066,0.2145,0.2157,0.2187,0.2131,0.2316,0.232,0.2324,0.235,0.2358,0.2365,0,0,0,0,0,0.1657,0.1685,0.1696,0.1711,0.1818,0.1906,0.1924,0.1973,0.1966,0.2,0.2047,0.2038,0.218,0.2151,0.2166,0.2197,0.2314,0.2319,0.2324,0.2347,0.2357,0.2365,0,0,0,0,0,0,0.1623,0.1695,0.1708,0.1757,0.1824,0.1913,0.1948,0.1976,0.2044,0.2041,0.2078,0.2091,0.2167,0.2184,0.2151,0.227,0.2242,0.225,0.2255,0.2264,0.2271,0.2297,0.2136,0,0,0,0,0,0.162,0.1657,0.1732,0.1773,0.1802,0.1873,0.1914,0.1951,0.2016,0.2044,0.209,0.2141,0.2204,0.2232,0.2291,0.2358,0.2425,0.2386,0.2394,0.2399,0.2432,0.2556,0.2578,0.2344,0.2344,0.2344,0,0,0.1617,0.1661,0.1682,0.1768,0.182,0.1883,0.1895,0.1962,0.2017,0.2043,0.2126,0.2173,0.2231,0.2313,0.2346,0.2326,0.2504,0.2406,0.241,0.2441,0.2564,0.2587,0.2608,0.2347,0.2347,0.2346,0,0,0.1641,0.1668,0.1714,0.1766,0.1844,0.1894,0.1909,0.2,0.2039,0.2126,0.2162,0.2239,0.2316,0.2384,0.2421,0.2508,0.2544,0.2503,0.2557,0.2677,0.2697,0.2716,0.2841,0.2871,0.25,0.25,0.25,0,0.1634,0.1699,0.1742,0.18,0.1838,0.1893,0.1949,0.2013,0.2118,0.2161,0.2149,0.2321,0.2361,0.2485,0.2517,0.2526,0.2599,0.2512,0.2687,0.2707,0.2726,0.2849,0.2881,0.2502,0.2502,0.2502,0.2501,0,0.1705,0.1747,0.1776,0.186,0.1909,0.1966,0.2041,0.21,0.2137,0.2203,0.2325,0.2409,0.2508,0.2529,0.2553,0.2704,0.2716,0.2684,0.2661,0.2751,0.2875,0.2909,0.2505,0.2504,0.2504,0.2503,0,0,0.1718,0.1806,0.1815,0.1844,0.1937,0.1985,0.2067,0.2168,0.223,0.2327,0.2425,0.2553,0.2597,0.2647,0.2691,0.28,0.2995,0.28,0.2806,0.292,0.3279,0.3243,0.3276,0.2988,0.2993,0.2998,0.3315,0,0.1762,0.1844,0.1886,0.1961,0.2006,0.2059,0.2129,0.222,0.2299,0.241,0.2515,0.2627,0.2639,0.2694,0.2811,0.2965,0.3083,0.2914,0.318,0.3189,0.3142,0.3313,0.3273,0.3549,0.3348,0.3354,0.3358,0,0.183,0.1869,0.1937,0.1995,0.2018,0.2069,0.217,0.2246,0.24,0.2464,0.2597,0.268,0.2888,0.2851,0.3184,0.3075,0.3189,0.329,0.3303,0.3288,0.3216,0.3426,0.3617,0.3507,0.3409,0.3405,0.3401,0,0.1825,0.1903,0.1943,0.1969,0.2055,0.2086,0.2134,0.2263,0.2357,0.2514,0.2613,0.2817,0.2969,0.3144,0.3364,0.3289,0.3716,0.3625,0.3705,0.3703,0.3735,0.3726,0.385,0.3848,0.3847,0.3846,0.3845,0,0.1868,0.1909,0.1936,0.1964,0.2027,0.2068,0.2168,0.2245,0.2393,0.2543,0.2646,0.2827,0.3055,0.3305,0.344,0.372,0.3787,0.3784,0.3806,0.3742,0.373,0.3683,0.3616,0.3858,0.3855,0.3853,0.3851,0,0.1923,0.1923,0.1987,0.203,0.2036,0.2094,0.2199,0.2305,0.24,0.2607,0.267,0.2929,0.3254,0.3473,0.381,0.3851,0.3993,0.4133,0.4047,0.4051,0.3942,0.3879,0.3906,0.3787,0.428,0.4281,0.4282,0,0.2002,0.2014,0.2041,0.2094,0.2128,0.2191,0.2265,0.2326,0.2452,0.2691,0.2826,0.314,0.3377,0.3839,0.4024,0.428,0.4113,0.4318,0.4146,0.3995,0.3943,0.3706,0.3584,0.4224,0.4225,0.4225,0.4225,0,0.2179,0.2152,0.2215,0.2253,0.2313,0.2376,0.2464,0.253,0.2644,0.2784,0.3033,0.3204,0.3623,0.3884,0.4167,0.4296,0.4109,0.4328,0.4226,0.3978,0.3686,0.356,0.3945,0.423,0.4229,0.4229,0.4229,0.4228,0.2363,0.2405,0.2432,0.2477,0.2525,0.2562,0.2586,0.2688,0.2805,0.2962,0.3145,0.3345,0.3694,0.4093,0.4186,0.428,0.4152,0.42,0.4168,0.3963,0.3739,0.412,0.4361,0.4361,0.4362,0.4362,0.4362,0,0.2565,0.2571,0.2658,0.2664,0.2702,0.2677,0.2737,0.2737,0.2816,0.2997,0.315,0.3469,0.3739,0.3973,0.4206,0.4124,0.392,0.4051,0.374,0.3647,0.4095,0.3977,0.4078,0.4078,0.4078,0.4078,0.4078,0.4078,0.2694,0.2778,0.2752,0.2817,0.2805,0.2778,0.2772,0.2769,0.284,0.2965,0.3092,0.3252,0.3596,0.3993,0.4057,0.3991,0.3649,0.3581,0.3455,0.3812,0.3821,0.3829,0.3701,0.3742,0.3742,0.2882,0.2876,0.2871]},{"header":{"parameterUnit":"m.s-1","parameterCategory":2,"la1":30.2991,"la2":30.254,"lo1":-89.0895,"lo2":-89.0444,"dy":0.0017,"dx":0.0017,"nx":28,"ny":28,"refTime":"2025-07-07T03:00:00:Z","depth":"0","parameterNumber":3,"parameterNumberName":"V-component_of_CURRENTS"},"data":[0,0,0,0,0,0,0,0,0,0,0,0,0,0,0,0,0,0,0,0,0,0,0,0,0,0,0,0,0,0,0,0,0,0,0,0,0,0,0,0,0,0,0,0,0,0,0,0,0,0,0,0,0,0,0,0,0,0,-0.0019,-0.0018,0,0.0075,0.0077,0.0078,0.0119,0.0119,0.0118,0.0118,0.0107,0.0107,0.0107,0,0,0,0,0,0,0,0,0,0,0,0,0,-0.0078,-0.0077,-0.0019,-0.0018,-0.0017,0.0075,0.0077,0.0079,0.0119,0.0119,0.0118,0.0117,0.0106,0.0107,0.0107,0,0,0,0,0,0,0,0,0,0,0,0,0,-0.0021,-0.0077,-0.0019,0.0011,0.0014,0.0075,0.0077,0.0079,0.012,0.0119,0.0118,0.0117,0.0106,0.0107,0.0107,0.0127,0,0,0.0108,0.0108,0,0,0,0,0,0,0,0,-0.0024,-0.0018,0.0005,0.0009,0.0012,0.008,0.0052,0.0088,0.012,0.0085,0.0118,0.0117,0.0085,0.0088,0.0116,0.0126,0.0126,0.0108,0.0108,0.0109,0.0109,0,0,0,0,0,0,0,-0.0028,-0.0021,0.0023,0.0006,0.001,0.0048,0.0055,0.006,0.0091,0.0088,0.009,0.0093,0.0087,0.0115,0.0115,0.0126,0.0108,0.0109,0.0109,0.0109,0.0123,0.0123,0,0,0,0,0,0,-0.0053,-0.0025,0.002,0.0026,-0.0014,0.0049,0.0057,0.0063,0.0093,0.0096,0.0093,0.0094,0.0115,0.0115,0.0115,0.0143,0.0109,0.0109,0.0109,0.0123,0.0123,0.0123,0,0,0,0,0,0,-0.0054,-0.0049,0.0016,-0.0002,0.0008,0.005,0.0057,0.0066,0.0087,0.0098,0.0099,0.0105,0.0114,0.0114,0.0121,0.0142,0.0109,0.0109,0.0123,0.0123,0.0123,0.0196,0,0,0,0,0,0,-0.0056,-0.005,-0.005,-0.0003,0.0008,0.006,0.0058,0.0068,0.0088,0.0091,0.0108,0.0107,0.0114,0.012,0.0121,0.0142,0.011,0.0123,0.0123,0.0123,0.0193,0.0199,0.0203,0,0,0,0,0,-0.0059,-0.0046,-0.005,-0.0044,0.0007,0.006,0.0072,0.0101,0.0089,0.0114,0.0115,0.0106,0.0122,0.0121,0.0122,0.0143,0.0122,0.0123,0.0123,0.0191,0.0198,0.0203,0,0,0,0,0,0,-0.0066,-0.004,-0.0043,-0.0023,0.0013,0.0065,0.009,0.0097,0.0123,0.0116,0.0116,0.0116,0.013,0.0118,0.0117,0.0144,0.0117,0.0118,0.0169,0.0175,0.0179,0.0239,0.011,0,0,0,0,0,-0.0073,-0.0057,-0.0026,-0.0009,0.0007,0.0043,0.0065,0.0085,0.0109,0.0121,0.0127,0.0126,0.0136,0.0138,0.0145,0.0162,0.0181,0.017,0.0175,0.018,0.0226,0.0281,0.0297,0.0124,0.0124,0.0124,0,0,-0.0071,-0.0056,-0.0047,-0.001,0.002,0.006,0.0057,0.0096,0.0128,0.0111,0.0149,0.0145,0.0142,0.0169,0.0173,0.0161,0.0227,0.018,0.0185,0.023,0.0283,0.0301,0.0316,0.0125,0.0125,0.0124,0,0,-0.0041,-0.0046,-0.0015,0.0011,0.0048,0.0073,0.0078,0.0124,0.0145,0.0173,0.0169,0.0191,0.0187,0.0219,0.0225,0.0257,0.0251,0.0229,0.0311,0.0362,0.0378,0.0393,0.0401,0.0416,0.0233,0.0233,0.0233,0,-0.004,-0.0007,0.0005,0.0043,0.0062,0.0074,0.0116,0.0147,0.0188,0.0222,0.0186,0.0247,0.0227,0.0302,0.0307,0.0277,0.0286,0.0291,0.0374,0.0389,0.0403,0.0408,0.0424,0.0237,0.0236,0.0236,0.0236,0,0.0024,0.0039,0.006,0.0103,0.0132,0.0166,0.0198,0.0232,0.0236,0.0277,0.0343,0.0343,0.0392,0.0369,0.0346,0.0435,0.04,0.0375,0.0371,0.0426,0.0425,0.0441,0.0242,0.024,0.0239,0.0239,0,0,0.0057,0.0095,0.0101,0.0122,0.0158,0.0196,0.0245,0.0319,0.0395,0.0409,0.0509,0.0515,0.0539,0.0548,0.053,0.0567,0.0636,0.0514,0.0515,0.0543,0.0726,0.0656,0.0665,0.0626,0.063,0.0633,0.0673,0,0.0103,0.0161,0.0174,0.0232,0.0262,0.0283,0.0345,0.041,0.0467,0.0568,0.059,0.0667,0.0599,0.0633,0.0664,0.0677,0.0686,0.0627,0.0652,0.0653,0.0603,0.0685,0.0652,0.0684,0.0688,0.069,0.0692,0,0.0165,0.019,0.0242,0.0299,0.0321,0.0362,0.0476,0.0539,0.0672,0.0726,0.0818,0.0842,0.093,0.0834,0.0908,0.0874,0.0805,0.0781,0.0781,0.0719,0.0615,0.0635,0.0711,0.0455,0.0715,0.0713,0.0712,0,0.0184,0.024,0.0275,0.0289,0.0362,0.0405,0.046,0.0592,0.071,0.0844,0.0959,0.1038,0.1123,0.1085,0.1036,0.0979,0.1092,0.1002,0.0864,0.0855,0.0839,0.0824,0.0702,0.1015,0.1015,0.1015,0.1015,0,0.0223,0.0263,0.0286,0.0308,0.0412,0.0435,0.0592,0.0675,0.0847,0.1046,0.1053,0.1234,0.1195,0.1247,0.1128,0.1084,0.1166,0.0921,0.0889,0.0853,0.0839,0.0624,0.05,0.1016,0.1016,0.1016,0.1015,0,0.0278,0.0267,0.0336,0.0394,0.0424,0.051,0.0688,0.084,0.0958,0.1219,0.1271,0.1437,0.1517,0.1432,0.1406,0.1238,0.1021,0.1083,0.1023,0.0982,0.0582,0.0465,0.04,0.0267,0.0954,0.0953,0.0952,0,0.0335,0.0352,0.0418,0.049,0.0528,0.0647,0.0774,0.0899,0.1086,0.1373,0.1533,0.166,0.1813,0.1735,0.1477,0.1264,0.1024,0.1014,0.089,0.0594,0.0442,0.0368,0.0255,0.0877,0.0875,0.0874,0.0873,0,0.0478,0.0476,0.0545,0.0653,0.0765,0.091,0.1083,0.1228,0.1425,0.1631,0.193,0.2051,0.1989,0.1837,0.1499,0.1297,0.0826,0.0978,0.0722,0.0431,0.0305,0.0149,0.0771,0.0863,0.0864,0.0865,0.0865,0.0866,0.0634,0.0704,0.0767,0.0878,0.1004,0.1171,0.1302,0.1502,0.1762,0.2068,0.2192,0.2401,0.2114,0.1695,0.136,0.0699,0.0742,0.0472,0.0373,0.0339,0.0166,0.0739,0.0754,0.0755,0.0755,0.0755,0.0756,0,0.0825,0.0874,0.1001,0.1125,0.1272,0.129,0.153,0.1666,0.1938,0.2235,0.2464,0.2493,0.2001,0.1487,0.0651,0.0178,-0.0004,-0.0076,-0.0197,-0.0274,0.0285,0.0228,0.0071,0.0071,0.0071,0.0071,0.0072,0.0072,0.0948,0.1074,0.1096,0.1336,0.1422,0.1615,0.1731,0.1923,0.214,0.2479,0.2666,0.2822,0.2488,0.0949,-0.0156,-0.0405,-0.0743,-0.0753,-0.0928,-0.0589,-0.0546,-0.0506,-0.0592,-0.0918,-0.0919,-0.1461,-0.1466,-0.147]}],[{"header":{"parameterUnit":"m.s-1","parameterCategory":2,"la1":30.2991,"la2":30.254,"lo1":-89.0895,"lo2":-89.0444,"dy":0.0017,"dx":0.0017,"nx":28,"ny":28,"refTime":"2025-07-07T03:00:00:Z","depth":"2","parameterNumber":2,"parameterNumberName":"U-component_of_CURRENTS"},"data":[0,0,0,0,0,0,0,0,0,0,0,0,0,0,0,0,0,0,0,0,0,0,0,0,0,0,0,0,0,0,0,0,0,0,0,0,0,0,0,0,0,0,0,0,0,0,0,0,0,0,0,0,0,0,0,0,0,0,0.1097,0.1097,0,0.1099,0.1099,0.1099,0.1064,0.1064,0.1063,0.1062,0.1014,0.1013,0.1012,0,0,0,0,0,0,0,0,0,0,0,0,0,0.105,0.1051,0.1097,0.1097,0.1097,0.1099,0.1099,0.1099,0.1064,0.1064,0.1063,0.1062,0.1014,0.1013,0.1012,0,0,0,0,0,0,0,0,0,0,0,0,0,0.1061,0.1051,0.1097,0.1082,0.1081,0.1099,0.1099,0.1098,0.1065,0.1063,0.1062,0.1061,0.1014,0.1013,0.1012,0.1029,0,0,0.101,0.1009,0,0,0,0,0,0,0,0,0.1061,0.1063,0.1084,0.1083,0.1082,0.1082,0.1065,0.1073,0.1065,0.1069,0.1062,0.1061,0.1034,0.1031,0.1032,0.1026,0.1024,0.1009,0.1009,0.1008,0.1008,0,0,0,0,0,0,0,0.106,0.1062,0.1095,0.1084,0.1083,0.1071,0.1071,0.1066,0.1055,0.1068,0.1066,0.107,0.1033,0.1033,0.103,0.1024,0.1009,0.1009,0.1008,0.1008,0.1089,0.1091,0,0,0,0,0,0,0.1066,0.1062,0.1095,0.1096,0.1071,0.1073,0.1073,0.1081,0.1056,0.1052,0.1071,0.1069,0.1035,0.1032,0.1029,0.1105,0.1008,0.1008,0.1007,0.1086,0.1089,0.1092,0,0,0,0,0,0,0.1065,0.1069,0.1095,0.108,0.1083,0.1075,0.1085,0.1082,0.1088,0.1059,0.1053,0.108,0.1034,0.103,0.1038,0.11,0.1007,0.1006,0.1083,0.1087,0.1091,0.122,0,0,0,0,0,0,0.1064,0.1069,0.1077,0.1081,0.1084,0.1119,0.1086,0.1083,0.1093,0.109,0.1065,0.1059,0.1033,0.1039,0.1037,0.1097,0.1006,0.108,0.1085,0.109,0.1212,0.1228,0.1241,0,0,0,0,0,0.1062,0.1078,0.1077,0.1081,0.1095,0.1121,0.1122,0.111,0.1095,0.1109,0.1092,0.106,0.107,0.104,0.1037,0.1099,0.1077,0.1083,0.1089,0.1206,0.1225,0.1241,0,0,0,0,0,0,0.1059,0.1077,0.1075,0.1095,0.1114,0.1116,0.1129,0.1122,0.1121,0.1117,0.1081,0.1076,0.1108,0.1086,0.1053,0.1139,0.1075,0.108,0.1165,0.1182,0.1196,0.1203,0.1005,0,0,0,0,0,0.1065,0.1082,0.1099,0.1117,0.1131,0.1134,0.1142,0.114,0.114,0.1138,0.1125,0.112,0.1133,0.114,0.1136,0.1178,0.1185,0.122,0.1235,0.1247,0.1252,0.1319,0.134,0.1112,0.1112,0.1112,0,0,0.1066,0.1081,0.1088,0.1118,0.1131,0.1162,0.1136,0.1162,0.1189,0.1134,0.1166,0.1162,0.1152,0.1199,0.1215,0.1188,0.1324,0.1255,0.1266,0.1263,0.1328,0.135,0.137,0.1116,0.1116,0.1115,0,0,0.1084,0.1098,0.1121,0.1146,0.1177,0.1188,0.1201,0.122,0.1232,0.1265,0.1242,0.1279,0.1282,0.1306,0.1314,0.1409,0.1391,0.1411,0.1499,0.1565,0.1584,0.1601,0.167,0.1691,0.1428,0.1428,0.1429,0,0.1084,0.1117,0.1133,0.1169,0.1192,0.1205,0.124,0.1266,0.1284,0.1309,0.129,0.1345,0.1343,0.1416,0.1457,0.1445,0.147,0.1432,0.1585,0.1601,0.1616,0.1682,0.1705,0.1435,0.1434,0.1434,0.1433,0,0.1123,0.1152,0.1175,0.1224,0.1254,0.129,0.1329,0.1365,0.1384,0.141,0.1481,0.1491,0.1529,0.1551,0.1534,0.1649,0.1631,0.1589,0.154,0.1647,0.171,0.1731,0.1445,0.1443,0.1441,0.1439,0,0,0.1113,0.1184,0.1193,0.122,0.1285,0.1312,0.1382,0.1447,0.1493,0.1543,0.1609,0.1676,0.1691,0.1702,0.1704,0.177,0.192,0.1735,0.1735,0.1803,0.2076,0.2003,0.2018,0.1902,0.1905,0.1908,0.2089,0,0.1137,0.12,0.1236,0.1301,0.1337,0.1383,0.1442,0.1507,0.1562,0.1633,0.1694,0.1755,0.1748,0.178,0.1854,0.1884,0.1976,0.1876,0.1961,0.1964,0.1886,0.204,0.1873,0.2013,0.2109,0.2112,0.2115,0,0.1163,0.1201,0.1263,0.1335,0.1356,0.1403,0.1497,0.155,0.1662,0.1713,0.1806,0.184,0.1965,0.1926,0.2087,0.202,0.2074,0.21,0.2107,0.2002,0.1929,0.1915,0.2046,0.2149,0.2146,0.2144,0.2142,0,0.1142,0.122,0.1265,0.1292,0.1379,0.1423,0.1474,0.1578,0.1649,0.1773,0.1847,0.1963,0.2041,0.2125,0.2179,0.216,0.2317,0.2298,0.2293,0.2288,0.2142,0.2117,0.2432,0.2432,0.2432,0.2431,0.2431,0,0.1154,0.119,0.1259,0.1287,0.1357,0.1411,0.1504,0.1577,0.1696,0.1803,0.1889,0.1998,0.2096,0.2181,0.2227,0.2316,0.2372,0.2346,0.2343,0.2184,0.2162,0.2253,0.223,0.2438,0.2436,0.2435,0.2434,0,0.114,0.1178,0.1234,0.1318,0.1353,0.1402,0.1535,0.1604,0.1713,0.1856,0.191,0.207,0.2206,0.2257,0.2389,0.2385,0.2455,0.2462,0.2264,0.2234,0.2389,0.2371,0.2556,0.2556,0.2555,0.2554,0.2554,0,0.1144,0.1167,0.1255,0.1302,0.135,0.1434,0.1503,0.1615,0.1699,0.1905,0.1978,0.2145,0.227,0.2404,0.2409,0.248,0.2486,0.2343,0.2288,0.2432,0.241,0.2392,0.2375,0.2171,0.2167,0.2164,0.2162,0,0.115,0.1174,0.1221,0.1303,0.1377,0.1456,0.156,0.1624,0.1761,0.1894,0.2064,0.2176,0.2329,0.2334,0.2365,0.2367,0.2315,0.2289,0.2513,0.2139,0.2075,0.205,0.2045,0.2136,0.2139,0.2141,0.2142,0.2143,0.1153,0.1175,0.122,0.1291,0.1376,0.1433,0.1471,0.1591,0.1701,0.1842,0.2002,0.2097,0.2166,0.2166,0.2141,0.2108,0.2274,0.2179,0.2186,0.2196,0.2093,0.2029,0.2064,0.2066,0.2068,0.2069,0.2071,0,0.1123,0.1145,0.121,0.126,0.1305,0.1378,0.1473,0.1494,0.1585,0.173,0.1851,0.1749,0.1815,0.1881,0.184,0.1875,0.1825,0.1784,0.1718,0.1746,0.1771,0.1642,0.1496,0.1494,0.1492,0.149,0,0,0.1102,0.1105,0.1112,0.1137,0.1203,0.1228,0.1258,0.133,0.1406,0.1443,0.1482,0.1636,0.1791,0.1575,0.1599,0.1554,0.161,0.1482,0.1948,0.1894,0.1915,0.2014,0.185,0,0,0,0,0]},{"header":{"parameterUnit":"m.s-1","parameterCategory":2,"la1":30.2991,"la2":30.254,"lo1":-89.0895,"lo2":-89.0444,"dy":0.0017,"dx":0.0017,"nx":28,"ny":28,"refTime":"2025-07-07T03:00:00:Z","depth":"2","parameterNumber":3,"parameterNumberName":"V-component_of_CURRENTS"},"data":[0,0,0,0,0,0,0,0,0,0,0,0,0,0,0,0,0,0,0,0,0,0,0,0,0,0,0,0,0,0,0,0,0,0,0,0,0,0,0,0,0,0,0,0,0,0,0,0,0,0,0,0,0,0,0,0,0,0,-0.0574,-0.0574,0,-0.0609,-0.0609,-0.061,-0.0645,-0.0645,-0.0646,-0.0646,-0.0608,-0.0607,-0.0605,0,0,0,0,0,0,0,0,0,0,0,0,0,-0.0535,-0.0535,-0.0574,-0.0574,-0.0575,-0.0609,-0.0609,-0.061,-0.0645,-0.0645,-0.0646,-0.0646,-0.0609,-0.0607,-0.0605,0,0,0,0,0,0,0,0,0,0,0,0,0,-0.0559,-0.0536,-0.0574,-0.0596,-0.0598,-0.0609,-0.0609,-0.061,-0.0645,-0.0645,-0.0646,-0.0647,-0.0609,-0.0607,-0.0605,-0.0578,0,0,-0.0598,-0.0597,0,0,0,0,0,0,0,0,-0.0558,-0.0561,-0.0592,-0.0595,-0.0597,-0.0623,-0.0582,-0.0596,-0.0644,-0.0627,-0.0646,-0.0647,-0.0606,-0.0604,-0.061,-0.0576,-0.0575,-0.0598,-0.0597,-0.0596,-0.0595,0,0,0,0,0,0,0,-0.0556,-0.0559,-0.0588,-0.0593,-0.0596,-0.0604,-0.0608,-0.0585,-0.0611,-0.0629,-0.0631,-0.0635,-0.0607,-0.0612,-0.0609,-0.0574,-0.0598,-0.0596,-0.0595,-0.0594,-0.0505,-0.0504,0,0,0,0,0,0,-0.0551,-0.0558,-0.0587,-0.0589,-0.0579,-0.0604,-0.0609,-0.0614,-0.0613,-0.0614,-0.0634,-0.0636,-0.0616,-0.0612,-0.0608,-0.0563,-0.0596,-0.0594,-0.0593,-0.0506,-0.0505,-0.0504,0,0,0,0,0,0,-0.055,-0.0553,-0.0585,-0.0574,-0.0579,-0.0604,-0.061,-0.0615,-0.0623,-0.0618,-0.0618,-0.0638,-0.0616,-0.0611,-0.0592,-0.0562,-0.0593,-0.0591,-0.0507,-0.0506,-0.0504,-0.0481,0,0,0,0,0,0,-0.0549,-0.0553,-0.0555,-0.0574,-0.0579,-0.0585,-0.0609,-0.0615,-0.0624,-0.0627,-0.062,-0.0618,-0.0616,-0.0595,-0.059,-0.056,-0.0589,-0.0509,-0.0507,-0.0505,-0.0483,-0.0479,-0.0475,0,0,0,0,0,-0.0547,-0.0539,-0.0555,-0.0558,-0.0581,-0.0584,-0.0587,-0.0608,-0.0623,-0.0619,-0.0623,-0.0619,-0.0578,-0.0593,-0.0587,-0.0556,-0.051,-0.0507,-0.0505,-0.0485,-0.048,-0.0475,0,0,0,0,0,0,-0.0518,-0.0543,-0.056,-0.056,-0.0571,-0.059,-0.0587,-0.0604,-0.0606,-0.0608,-0.061,-0.0607,-0.0578,-0.057,-0.0586,-0.0524,-0.054,-0.0536,-0.0527,-0.0522,-0.0518,-0.0524,-0.0588,0,0,0,0,0,-0.0514,-0.0517,-0.0541,-0.0539,-0.0544,-0.0567,-0.0572,-0.0586,-0.0591,-0.0595,-0.0593,-0.0582,-0.0562,-0.0547,-0.0532,-0.0496,-0.0512,-0.047,-0.0466,-0.0463,-0.0462,-0.0481,-0.0479,-0.0496,-0.0496,-0.0496,0,0,-0.0501,-0.0515,-0.0517,-0.0533,-0.0544,-0.0535,-0.0571,-0.0573,-0.0563,-0.0585,-0.0568,-0.0569,-0.0551,-0.0519,-0.0503,-0.0508,-0.0463,-0.046,-0.0457,-0.0458,-0.0478,-0.0477,-0.0476,-0.0494,-0.0494,-0.0495,0,0,-0.0464,-0.049,-0.0476,-0.0484,-0.0498,-0.0512,-0.0511,-0.053,-0.0537,-0.0524,-0.0536,-0.0531,-0.0495,-0.0488,-0.0475,-0.0437,-0.0447,-0.0417,-0.0394,-0.0412,-0.0411,-0.0411,-0.0422,-0.0423,-0.0409,-0.0409,-0.0409,0,-0.0446,-0.0437,-0.047,-0.0456,-0.0455,-0.0496,-0.0475,-0.0484,-0.0494,-0.0494,-0.051,-0.049,-0.0481,-0.0448,-0.0435,-0.0428,-0.0439,-0.0416,-0.0409,-0.0409,-0.0409,-0.0421,-0.0422,-0.0408,-0.0408,-0.0408,-0.0408,0,-0.0396,-0.0392,-0.0382,-0.0382,-0.0384,-0.0373,-0.0393,-0.0395,-0.0414,-0.0429,-0.0419,-0.0429,-0.0416,-0.0408,-0.0407,-0.0389,-0.0397,-0.041,-0.0427,-0.0407,-0.042,-0.0421,-0.0406,-0.0406,-0.0407,-0.0407,0,0,-0.0349,-0.0347,-0.0344,-0.0337,-0.0346,-0.0344,-0.0326,-0.0326,-0.0321,-0.0344,-0.0338,-0.0326,-0.0355,-0.0343,-0.0351,-0.0367,-0.0377,-0.0382,-0.0384,-0.0402,-0.0412,-0.0483,-0.0492,-0.0391,-0.0391,-0.0392,-0.0419,0,-0.0299,-0.026,-0.0271,-0.0237,-0.0223,-0.0251,-0.0234,-0.0244,-0.0259,-0.0267,-0.0299,-0.0288,-0.032,-0.0311,-0.0338,-0.0378,-0.0382,-0.0368,-0.042,-0.0421,-0.0495,-0.0496,-0.0437,-0.0462,-0.0421,-0.0421,-0.0421,0,-0.0247,-0.0231,-0.019,-0.0179,-0.0175,-0.0161,-0.0156,-0.0147,-0.0169,-0.0173,-0.0193,-0.0223,-0.025,-0.0277,-0.0347,-0.0338,-0.036,-0.0396,-0.0398,-0.0476,-0.0497,-0.0476,-0.0468,-0.0425,-0.0425,-0.0424,-0.0424,0,-0.0214,-0.0176,-0.0145,-0.014,-0.0132,-0.0119,-0.0115,-0.0124,-0.0103,-0.0117,-0.0104,-0.0164,-0.0178,-0.0247,-0.0357,-0.033,-0.0461,-0.0426,-0.0503,-0.0508,-0.0475,-0.0477,-0.0445,-0.0445,-0.0445,-0.0445,-0.0445,0,-0.017,-0.0152,-0.0129,-0.012,-0.0081,-0.0089,-0.0055,-0.0053,-0.004,-0.0002,-0.0057,-0.0042,-0.0169,-0.0269,-0.0354,-0.0481,-0.046,-0.0506,-0.0526,-0.0465,-0.0466,-0.0447,-0.0447,-0.0446,-0.0446,-0.0446,-0.0446,0,-0.0169,-0.0145,-0.0119,-0.0092,-0.0072,-0.0058,-0.0006,0.0026,0.0037,0.0085,0.0096,0.0046,-0.0066,-0.0242,-0.037,-0.0462,-0.0584,-0.0619,-0.0554,-0.0566,-0.0597,-0.0595,-0.0654,-0.0657,-0.0659,-0.0661,-0.0663,0,-0.018,-0.0162,-0.0109,-0.0071,-0.006,-0.0019,0.0025,0.006,0.0114,0.015,0.0185,0.0096,0.0064,-0.0221,-0.0422,-0.0615,-0.0633,-0.0682,-0.0611,-0.0608,-0.0621,-0.0615,-0.061,-0.0539,-0.054,-0.054,-0.054,0,-0.021,-0.0188,-0.0155,-0.0068,-0.001,0.0064,0.0135,0.0199,0.0256,0.0319,0.0378,0.0354,0.0103,-0.0088,-0.0419,-0.054,-0.0662,-0.0695,-0.0716,-0.0519,-0.0509,-0.0519,-0.0515,-0.0544,-0.0544,-0.0544,-0.0543,-0.0543,-0.024,-0.0213,-0.0143,-0.0057,0.0026,0.0149,0.0243,0.0343,0.0459,0.0589,0.0519,0.0516,0.0244,-0.0122,-0.0386,-0.0657,-0.0635,-0.0685,-0.0678,-0.0673,-0.0678,-0.0676,-0.0742,-0.0743,-0.0743,-0.0744,-0.0744,0,-0.0253,-0.0195,-0.0124,0.0001,0.0118,0.0166,0.0332,0.0452,0.063,0.0703,0.0763,0.0539,0.0304,-0.0008,-0.0374,-0.061,-0.0586,-0.0693,-0.0585,-0.0581,-0.0578,-0.0574,-0.0613,-0.0613,-0.0612,-0.0612,0,0,-0.0254,-0.0175,-0.0115,0.0072,0.0178,0.0372,0.0496,0.0663,0.0762,0.0871,0.0882,0.0791,0.0399,0.0163,-0.018,-0.0377,-0.0415,-0.0421,-0.0506,-0.0335,-0.0328,-0.0563,-0.0554,0,0,0,0,0]}],[{"header":{"parameterUnit":"m.s-1","parameterCategory":2,"la1":30.2991,"la2":30.254,"lo1":-89.0895,"lo2":-89.0444,"dy":0.0017,"dx":0.0017,"nx":28,"ny":28,"refTime":"2025-07-07T03:00:00:Z","depth":"4","parameterNumber":2,"parameterNumberName":"U-component_of_CURRENTS"},"data":[0,0,0,0,0,0,0,0,0,0,0,0,0,0,0,0,0,0,0,0,0,0,0,0,0,0,0,0,0,0,0,0,0,0,0,0,0,0,0,0,0,0,0,0,0,0,0,0,0,0,0,0,0,0,0,0,0,0,0.0527,0.0528,0,0.0589,0.0589,0.059,0.0634,0.0634,0.0634,0.0635,0.0701,0.0703,0.0704,0,0,0,0,0,0,0,0,0,0,0,0,0,0.0474,0.0475,0.0527,0.0528,0.0529,0.0588,0.0589,0.059,0.0634,0.0634,0.0634,0.0635,0.0701,0.0703,0.0705,0,0,0,0,0,0,0,0,0,0,0,0,0,0.0513,0.0475,0.0527,0.0557,0.056,0.0588,0.0589,0.059,0.0634,0.0634,0.0635,0.0635,0.07,0.0703,0.0705,0.071,0,0,0.0712,0.0713,0,0,0,0,0,0,0,0,0.0511,0.0515,0.0552,0.0555,0.0559,0.0603,0.0595,0.0631,0.0634,0.0607,0.0635,0.0635,0.0668,0.0673,0.0685,0.0713,0.0716,0.0712,0.0713,0.0714,0.0715,0,0,0,0,0,0,0,0.0508,0.0513,0.0552,0.0553,0.0557,0.0576,0.0582,0.0602,0.0635,0.0609,0.0612,0.0618,0.067,0.0682,0.0687,0.0717,0.0712,0.0714,0.0715,0.0716,0.0783,0.0783,0,0,0,0,0,0,0.0497,0.051,0.055,0.0554,0.0534,0.0577,0.0583,0.0589,0.0635,0.0642,0.0617,0.0619,0.0678,0.0684,0.0689,0.0754,0.0714,0.0716,0.0718,0.0782,0.0783,0.0783,0,0,0,0,0,0,0.0496,0.05,0.0548,0.0533,0.054,0.0577,0.0583,0.059,0.0624,0.0641,0.0648,0.0646,0.0679,0.0686,0.0724,0.0755,0.0717,0.0719,0.0782,0.0782,0.0783,0.0848,0,0,0,0,0,0,0.0494,0.0499,0.0518,0.0532,0.0541,0.0584,0.0583,0.0591,0.0625,0.0629,0.0668,0.0673,0.068,0.0721,0.0726,0.0757,0.0721,0.0781,0.0782,0.0783,0.0845,0.0851,0.0856,0,0,0,0,0,0.0492,0.0504,0.0518,0.0524,0.0559,0.0585,0.0592,0.0619,0.0626,0.065,0.067,0.0673,0.0729,0.0723,0.073,0.0762,0.0781,0.0782,0.0783,0.0843,0.085,0.0855,0,0,0,0,0,0,0.0492,0.051,0.0526,0.0545,0.0575,0.0593,0.0615,0.0632,0.0667,0.0674,0.0686,0.0694,0.0737,0.0734,0.0727,0.0779,0.0752,0.0755,0.0796,0.0802,0.0807,0.0809,0.0723,0,0,0,0,0,0.05,0.0515,0.0539,0.0559,0.0572,0.0599,0.0618,0.0638,0.066,0.0678,0.0705,0.0723,0.0742,0.076,0.0777,0.0811,0.0811,0.083,0.0835,0.084,0.0843,0.0859,0.0866,0.0786,0.0786,0.0786,0,0,0.0504,0.0519,0.0528,0.0562,0.0583,0.0607,0.0613,0.0645,0.0671,0.0678,0.0729,0.0748,0.0754,0.0793,0.0811,0.0798,0.0866,0.0841,0.0845,0.0846,0.0861,0.0869,0.0876,0.0787,0.0787,0.0787,0,0,0.0515,0.0535,0.0554,0.0578,0.0616,0.0629,0.0642,0.0678,0.0704,0.0752,0.0756,0.0791,0.0832,0.084,0.0846,0.0885,0.0892,0.0894,0.0928,0.0944,0.0952,0.0958,0.0987,0.0995,0.0897,0.0897,0.0897,0,0.0524,0.055,0.0567,0.0593,0.0613,0.0638,0.0665,0.069,0.0739,0.0768,0.0777,0.0843,0.0851,0.0886,0.09,0.09,0.0916,0.091,0.0953,0.0959,0.0964,0.0992,0.1,0.0901,0.09,0.09,0.09,0,0.0546,0.0577,0.0588,0.0625,0.0652,0.0677,0.0706,0.0751,0.0785,0.0814,0.0878,0.0896,0.0938,0.0943,0.0938,0.0981,0.0984,0.096,0.0943,0.0977,0.1004,0.1011,0.0905,0.0904,0.0903,0.0902,0,0,0.0533,0.0592,0.06,0.0628,0.067,0.0693,0.0738,0.079,0.0834,0.0887,0.0947,0.0978,0.1006,0.1012,0.1016,0.1026,0.1082,0.1018,0.1017,0.1056,0.1141,0.111,0.1115,0.1076,0.1077,0.1078,0.1152,0,0.0549,0.0599,0.0625,0.0676,0.07,0.0741,0.0781,0.0834,0.0887,0.0953,0.098,0.1035,0.1024,0.1061,0.1073,0.1081,0.1102,0.1065,0.1093,0.1094,0.107,0.1122,0.1082,0.1158,0.1159,0.116,0.1161,0,0.0559,0.0595,0.0641,0.0709,0.0724,0.0762,0.0843,0.0887,0.0969,0.1015,0.1079,0.1109,0.1153,0.1128,0.1171,0.1156,0.1159,0.1153,0.1156,0.1107,0.1077,0.111,0.1174,0.1173,0.1172,0.1172,0.1171,0,0.0532,0.0604,0.0641,0.0661,0.0736,0.0782,0.0835,0.0917,0.0971,0.1064,0.1122,0.1174,0.1223,0.1228,0.1243,0.1218,0.1281,0.1239,0.1214,0.1212,0.1188,0.118,0.1263,0.1263,0.1262,0.1262,0.1262,0,0.0522,0.0555,0.0641,0.0659,0.0723,0.0785,0.0866,0.0929,0.103,0.1093,0.1158,0.1212,0.1252,0.1297,0.128,0.1288,0.1319,0.1235,0.1231,0.1215,0.121,0.1195,0.1186,0.1265,0.1264,0.1264,0.1263,0,0.0476,0.0527,0.0572,0.0668,0.0708,0.0755,0.0884,0.0939,0.1043,0.1133,0.117,0.127,0.1332,0.1367,0.139,0.1347,0.1341,0.1331,0.1346,0.1338,0.1251,0.1245,0.1308,0.1308,0.1308,0.1307,0.1307,0,0.0451,0.0468,0.0567,0.0598,0.0646,0.0737,0.0795,0.0926,0.0978,0.1149,0.1172,0.1301,0.1352,0.1369,0.1399,0.1405,0.1374,0.1369,0.1276,0.1268,0.1257,0.1251,0.1246,0.1306,0.1306,0.1306,0.1306,0,0.0394,0.043,0.0471,0.0543,0.0609,0.0678,0.0776,0.0824,0.0967,0.1074,0.1163,0.1229,0.1311,0.134,0.138,0.136,0.1367,0.1364,0.1363,0.1275,0.1266,0.1255,0.1249,0.1305,0.1305,0.1305,0.1305,0,0.0346,0.0358,0.0417,0.0476,0.0551,0.0605,0.0673,0.0758,0.0844,0.1035,0.106,0.1191,0.1295,0.132,0.1338,0.135,0.1311,0.1239,0.1244,0.1246,0.1192,0.1169,0.1189,0,0,0,0,0,0.0301,0.0311,0.035,0.0414,0.0485,0.0538,0.0646,0.0713,0.0864,0.09,0.0989,0.1061,0.1153,0.1208,0.1207,0.1303,0.1304,0.1295,0.122,0.1298,0.13,0.1243,0,0,0,0,0,0,0.0266,0.0296,0.0321,0.0353,0.039,0.0467,0.054,0.064,0.0663,0.0818,0.0861,0.0987,0.107,0.1138,0.118,0.1201,0.1131,0.1379,0.1377,0.1297,0.1299,0.13,0.1242,0,0,0,0,0]},{"header":{"parameterUnit":"m.s-1","parameterCategory":2,"la1":30.2991,"la2":30.254,"lo1":-89.0895,"lo2":-89.0444,"dy":0.0017,"dx":0.0017,"nx":28,"ny":28,"refTime":"2025-07-07T03:00:00:Z","depth":"4","parameterNumber":3,"parameterNumberName":"V-component_of_CURRENTS"},"data":[0,0,0,0,0,0,0,0,0,0,0,0,0,0,0,0,0,0,0,0,0,0,0,0,0,0,0,0,0,0,0,0,0,0,0,0,0,0,0,0,0,0,0,0,0,0,0,0,0,0,0,0,0,0,0,0,0,0,0.0027,0.0027,0,-0.0051,-0.0052,-0.0053,-0.0098,-0.0098,-0.0098,-0.0098,-0.021,-0.0213,-0.0216,0,0,0,0,0,0,0,0,0,0,0,0,0,0.007,0.007,0.0027,0.0027,0.0026,-0.0051,-0.0052,-0.0053,-0.0098,-0.0098,-0.0098,-0.0098,-0.0209,-0.0213,-0.0216,0,0,0,0,0,0,0,0,0,0,0,0,0,0.0027,0.007,0.0028,-0.0005,-0.0009,-0.005,-0.0052,-0.0053,-0.0098,-0.0098,-0.0098,-0.0098,-0.0208,-0.0212,-0.0217,-0.0242,0,0,-0.023,-0.0232,0,0,0,0,0,0,0,0,0.0029,0.0025,0.0001,-0.0003,-0.0007,-0.0064,-0.0078,-0.0118,-0.0098,-0.0066,-0.0098,-0.0099,-0.0163,-0.0171,-0.0187,-0.0247,-0.0252,-0.023,-0.0233,-0.0235,-0.0236,0,0,0,0,0,0,0,0.0032,0.0028,-0.0005,-0.0,-0.0005,-0.0039,-0.0045,-0.0086,-0.0115,-0.0069,-0.0072,-0.0078,-0.0166,-0.0183,-0.019,-0.0254,-0.023,-0.0234,-0.0237,-0.0239,-0.035,-0.0351,0,0,0,0,0,0,0.0049,0.0031,-0.0002,-0.0007,0.0013,-0.0039,-0.0046,-0.0047,-0.0114,-0.0123,-0.0078,-0.008,-0.0175,-0.0185,-0.0195,-0.0251,-0.0235,-0.0239,-0.0242,-0.035,-0.035,-0.0351,0,0,0,0,0,0,0.005,0.0047,0.0001,0.0011,0.0003,-0.0039,-0.004,-0.0048,-0.0074,-0.012,-0.0131,-0.0097,-0.0176,-0.0188,-0.0241,-0.0254,-0.0241,-0.0245,-0.035,-0.035,-0.035,-0.0349,0,0,0,0,0,0,0.0051,0.0048,0.0047,0.0012,0.0003,-0.0028,-0.004,-0.0049,-0.0077,-0.008,-0.014,-0.015,-0.0177,-0.0234,-0.0245,-0.026,-0.0248,-0.0349,-0.035,-0.035,-0.0348,-0.0349,-0.035,0,0,0,0,0,0.0053,0.0053,0.0048,0.0043,0.0006,-0.0029,-0.0037,-0.0068,-0.0077,-0.0092,-0.0132,-0.0148,-0.0245,-0.0238,-0.0251,-0.0268,-0.0349,-0.035,-0.035,-0.0348,-0.0349,-0.035,0,0,0,0,0,0,0.007,0.0048,0.0041,0.0034,0.0005,-0.0036,-0.0051,-0.0072,-0.0115,-0.012,-0.0162,-0.0176,-0.0228,-0.0245,-0.0236,-0.0299,-0.0296,-0.0299,-0.029,-0.0291,-0.0292,-0.0282,-0.0252,0,0,0,0,0,0.0076,0.0071,0.0041,0.0034,0.0022,-0.0015,-0.0034,-0.0055,-0.0094,-0.0114,-0.0155,-0.0195,-0.024,-0.0262,-0.0303,-0.0341,-0.036,-0.0356,-0.0356,-0.0357,-0.0356,-0.0404,-0.0409,-0.0353,-0.0353,-0.0353,0,0,0.0082,0.0068,0.0065,0.0037,0.0013,-0.0004,-0.0028,-0.0056,-0.0073,-0.012,-0.0161,-0.0208,-0.0252,-0.0297,-0.032,-0.0313,-0.0381,-0.0358,-0.0358,-0.0357,-0.0405,-0.0411,-0.0416,-0.0354,-0.0354,-0.0353,0,0,0.0084,0.0077,0.007,0.0051,0.0018,-0.0003,-0.001,-0.0055,-0.0078,-0.0124,-0.0162,-0.0217,-0.0275,-0.0314,-0.0339,-0.0367,-0.0389,-0.0374,-0.0368,-0.0414,-0.042,-0.0424,-0.0446,-0.0453,-0.0367,-0.0367,-0.0367,0,0.0089,0.0087,0.006,0.0047,0.0041,0.0001,-0.0005,-0.0038,-0.0096,-0.0118,-0.0133,-0.0241,-0.0284,-0.0342,-0.0352,-0.0371,-0.039,-0.0363,-0.0416,-0.0421,-0.0426,-0.0448,-0.0455,-0.0367,-0.0367,-0.0367,-0.0367,0,0.0083,0.0086,0.008,0.0061,0.0043,0.0033,-0.0004,-0.0034,-0.0065,-0.0102,-0.0173,-0.0242,-0.03,-0.0326,-0.0352,-0.0407,-0.0406,-0.0418,-0.0414,-0.0432,-0.0453,-0.0461,-0.0367,-0.0367,-0.0367,-0.0367,0,0,0.0085,0.0081,0.0079,0.0091,0.0058,0.0049,0.0018,-0.0018,-0.0037,-0.0111,-0.0147,-0.0243,-0.0286,-0.0317,-0.0364,-0.0409,-0.0465,-0.0424,-0.0426,-0.0445,-0.0552,-0.0493,-0.0496,-0.0487,-0.0489,-0.049,-0.0549,0,0.0092,0.0104,0.0087,0.0099,0.011,0.0075,0.0057,0.0014,-0.0033,-0.0082,-0.0169,-0.0224,-0.0279,-0.0309,-0.0369,-0.0444,-0.0487,-0.0447,-0.0532,-0.0534,-0.048,-0.0503,-0.0495,-0.0555,-0.0557,-0.0559,-0.0559,0,0.0089,0.0106,0.013,0.0149,0.0148,0.0141,0.0119,0.0095,0.0014,-0.0026,-0.011,-0.0178,-0.0273,-0.0306,-0.0448,-0.0419,-0.0484,-0.054,-0.0543,-0.0494,-0.049,-0.0537,-0.0574,-0.0573,-0.0572,-0.0571,-0.057,0,0.0123,0.0137,0.0172,0.0175,0.0177,0.0176,0.0169,0.0108,0.009,0.0008,-0.002,-0.0147,-0.0203,-0.0317,-0.0438,-0.0447,-0.0575,-0.06,-0.0608,-0.0604,-0.0641,-0.0635,-0.0694,-0.0694,-0.0694,-0.0693,-0.0693,0,0.0148,0.0171,0.0195,0.0214,0.024,0.0226,0.0227,0.0193,0.0145,0.0122,0.0015,-0.0031,-0.0209,-0.0308,-0.0422,-0.0529,-0.0565,-0.061,-0.062,-0.0636,-0.0629,-0.0646,-0.0639,-0.0696,-0.0695,-0.0695,-0.0694,0,0.0168,0.0191,0.0225,0.0249,0.0258,0.0271,0.0272,0.0264,0.0227,0.0194,0.0172,0.0046,-0.0079,-0.0236,-0.0412,-0.0487,-0.0603,-0.0628,-0.0611,-0.0619,-0.0607,-0.06,-0.0656,-0.0654,-0.0653,-0.0652,-0.0651,0,0.0177,0.0203,0.0247,0.0264,0.0274,0.0297,0.0306,0.0294,0.0287,0.0241,0.0226,0.0112,0.0014,-0.0178,-0.0347,-0.0538,-0.0566,-0.0613,-0.0643,-0.0601,-0.0606,-0.0601,-0.0595,-0.0649,-0.0649,-0.0648,-0.0648,0,0.0184,0.0199,0.0227,0.0277,0.0301,0.0333,0.0353,0.036,0.0346,0.0319,0.0273,0.0162,0.0033,-0.0151,-0.0285,-0.0431,-0.0581,-0.0601,-0.0606,-0.0634,-0.0593,-0.0598,-0.0595,-0.0644,-0.0644,-0.0645,-0.0645,0,0.0171,0.019,0.0235,0.0276,0.0314,0.0359,0.0369,0.0378,0.0383,0.0342,0.0329,0.0188,0.0093,-0.0093,-0.0223,-0.035,-0.04,-0.0442,-0.0456,-0.0463,-0.0391,-0.031,-0.0283,0,0,0,0,0,0.0158,0.0193,0.023,0.0286,0.0328,0.0358,0.0394,0.0401,0.0401,0.0383,0.0362,0.0247,0.0059,-0.0034,-0.0151,-0.0223,-0.0433,-0.0364,-0.0492,-0.0619,-0.0624,-0.0567,0,0,0,0,0,0,0.0152,0.0191,0.023,0.0295,0.0328,0.0383,0.0409,0.041,0.0401,0.038,0.0278,0.0231,0.0036,0.0124,-0.0152,-0.0192,-0.0284,-0.0459,-0.0461,-0.0616,-0.0621,-0.0625,-0.0568,0,0,0,0,0]}]]